Location: Borbetomagus
(49.6328°N, 8.3592°E)
Time: 17:37:09
(UTC+00:00)

NOSS 2-1 (D) - Pass Details

Date: 19 May 2025
Orbit: 378 x 1697 km, 63.3° (Epoch: 16 June)

Event Time Altitude Azimuth Distance (km) Brightness Sun altitude
Exits shadow 22:35:47 89° 199° (SSW) 414 2.6 -19.6°
Maximum altitude 22:35:48 90° 140° (SE) 414 2.6 -19.6°
Drops below altitude 10° 22:38:48 10° 43° (NE) 1,410 5.9 -19.7°
Sets 22:40:44 0° 43° (NE) 2,258 7.0 -19.8°
